Year,Month,Day,Hour,Minute,Value (Times are PST for temperature in C)
2011,06,16,00,00,10.50
2011,06,16,00,01,10.50
2011,06,16,00,02,10.50
2011,06,16,00,03,10.50
2011,06,16,00,04,10.50
2011,06,16,00,05,10.50
2011,06,16,00,06,10.50
2011,06,16,00,07,10.40
2011,06,16,00,08,10.50
2011,06,16,00,09,10.50
2011,06,16,00,10,10.50
2011,06,16,00,11,10.50
2011,06,16,00,12,10.50
2011,06,16,00,13,10.50
2011,06,16,00,14,10.50
2011,06,16,00,15,10.60
2011,06,16,00,16,10.60
2011,06,16,00,17,10.60
2011,06,16,00,18,10.60
2011,06,16,00,19,10.60
2011,06,16,00,20,10.60
2011,06,16,00,21,10.50
2011,06,16,00,22,10.50
2011,06,16,00,23,10.50
2011,06,16,00,24,10.50
2011,06,16,00,25,10.40
2011,06,16,00,26,10.40
2011,06,16,00,27,10.40
2011,06,16,00,28,10.40
2011,06,16,00,29,10.40
2011,06,16,00,30,10.30
2011,06,16,00,31,10.30
2011,06,16,00,32,10.30
2011,06,16,00,33,10.30
2011,06,16,00,34,10.20
2011,06,16,00,35,10.20
2011,06,16,00,36,10.20
2011,06,16,00,37,10.20
2011,06,16,00,38,10.20
2011,06,16,00,39,10.20
2011,06,16,00,40,10.20
2011,06,16,00,41,10.20
2011,06,16,00,42,10.20
2011,06,16,00,43,10.20
2011,06,16,00,44,10.20
2011,06,16,00,45,10.20
2011,06,16,00,46,10.20
2011,06,16,00,47,10.20
2011,06,16,00,48,10.20
2011,06,16,00,49,10.20
2011,06,16,00,50,10.20
2011,06,16,00,51,10.20
2011,06,16,00,52,10.20
2011,06,16,00,53,10.10
2011,06,16,00,54,10.10
2011,06,16,00,55,10.10
2011,06,16,00,56,10.10
2011,06,16,00,57,10.10
2011,06,16,00,58,10.10
2011,06,16,00,59,10.00
2011,06,16,01,00,10.00
2011,06,16,01,01,10.00
2011,06,16,01,02,9.90
2011,06,16,01,03,9.90
2011,06,16,01,04,9.90
2011,06,16,01,05,9.90
2011,06,16,01,06,9.90
2011,06,16,01,07,9.90
2011,06,16,01,08,9.90
2011,06,16,01,09,9.90
2011,06,16,01,10,10.00
2011,06,16,01,11,10.00
2011,06,16,01,12,10.10
2011,06,16,01,13,10.10
2011,06,16,01,14,10.20
2011,06,16,01,15,10.20
2011,06,16,01,16,10.30
2011,06,16,01,17,10.30
2011,06,16,01,18,10.40
2011,06,16,01,19,10.40
2011,06,16,01,20,10.50
2011,06,16,01,21,10.50
2011,06,16,01,22,10.50
2011,06,16,01,23,10.50
2011,06,16,01,24,10.50
2011,06,16,01,25,10.50
2011,06,16,01,26,10.50
2011,06,16,01,27,10.50
2011,06,16,01,28,10.50
2011,06,16,01,29,10.50
2011,06,16,01,30,10.50
2011,06,16,01,31,10.60
2011,06,16,01,32,10.60
2011,06,16,01,33,10.60
2011,06,16,01,34,10.70
2011,06,16,01,35,10.70
2011,06,16,01,36,10.70
2011,06,16,01,37,10.80
2011,06,16,01,38,10.80
2011,06,16,01,39,10.80
2011,06,16,01,40,10.80
2011,06,16,01,41,10.80
2011,06,16,01,42,10.90
2011,06,16,01,43,10.90
2011,06,16,01,44,10.80
2011,06,16,01,45,10.80
2011,06,16,01,46,10.80
2011,06,16,01,47,10.80
2011,06,16,01,48,10.80
2011,06,16,01,49,10.80
2011,06,16,01,50,10.80
2011,06,16,01,51,10.80
2011,06,16,01,52,10.70
2011,06,16,01,53,10.70
2011,06,16,01,54,10.70
2011,06,16,01,55,10.70
2011,06,16,01,56,10.70
2011,06,16,01,57,10.60
2011,06,16,01,58,10.60
2011,06,16,01,59,10.60
2011,06,16,02,00,10.60
2011,06,16,02,01,10.60
2011,06,16,02,02,10.60
2011,06,16,02,03,10.60
2011,06,16,02,04,10.60
2011,06,16,02,05,10.60
2011,06,16,02,06,10.60
2011,06,16,02,07,10.60
2011,06,16,02,08,10.60
2011,06,16,02,09,10.60
2011,06,16,02,10,10.60
2011,06,16,02,11,10.60
2011,06,16,02,12,10.60
2011,06,16,02,13,10.60
2011,06,16,02,14,10.60
2011,06,16,02,15,10.60
2011,06,16,02,16,10.50
2011,06,16,02,17,10.50
2011,06,16,02,18,10.50
2011,06,16,02,19,10.50
2011,06,16,02,20,10.40
2011,06,16,02,21,10.40
2011,06,16,02,22,10.40
2011,06,16,02,23,10.40
2011,06,16,02,24,10.40
2011,06,16,02,25,10.30
2011,06,16,02,26,10.30
2011,06,16,02,27,10.30
2011,06,16,02,28,10.30
2011,06,16,02,29,10.30
2011,06,16,02,30,10.20
2011,06,16,02,31,10.20
2011,06,16,02,32,10.20
2011,06,16,02,33,10.10
2011,06,16,02,34,10.10
2011,06,16,02,35,10.10
2011,06,16,02,36,10.10
2011,06,16,02,37,10.00
2011,06,16,02,38,10.00
2011,06,16,02,39,9.90
2011,06,16,02,40,9.90
2011,06,16,02,41,9.90
2011,06,16,02,42,9.90
2011,06,16,02,43,9.80
2011,06,16,02,44,9.80
2011,06,16,02,45,9.80
2011,06,16,02,46,9.80
2011,06,16,02,47,9.80
2011,06,16,02,48,9.80
2011,06,16,02,49,9.80
2011,06,16,02,50,9.80
2011,06,16,02,51,9.80
2011,06,16,02,52,9.80
2011,06,16,02,53,9.80
2011,06,16,02,54,9.80
2011,06,16,02,55,9.80
2011,06,16,02,56,9.80
2011,06,16,02,57,9.70
2011,06,16,02,58,9.70
2011,06,16,02,59,9.70
2011,06,16,03,00,9.70
2011,06,16,03,01,9.60
2011,06,16,03,02,9.60
2011,06,16,03,03,9.60
2011,06,16,03,04,9.60
2011,06,16,03,05,9.50
2011,06,16,03,06,9.50
2011,06,16,03,07,9.50
2011,06,16,03,08,9.50
2011,06,16,03,09,9.50
2011,06,16,03,10,9.50
2011,06,16,03,11,9.40
2011,06,16,03,12,9.40
2011,06,16,03,13,9.40
2011,06,16,03,14,9.40
2011,06,16,03,15,9.40
2011,06,16,03,16,9.40
2011,06,16,03,17,9.40
2011,06,16,03,18,9.40
2011,06,16,03,19,9.30
2011,06,16,03,20,9.30
2011,06,16,03,21,9.20
2011,06,16,03,22,9.10
2011,06,16,03,23,9.10
2011,06,16,03,24,9.00
2011,06,16,03,25,8.90
2011,06,16,03,26,8.90
2011,06,16,03,27,8.80
2011,06,16,03,28,8.80
2011,06,16,03,29,8.80
2011,06,16,03,30,8.70
2011,06,16,03,31,8.70
2011,06,16,03,32,8.70
2011,06,16,03,33,8.70
2011,06,16,03,34,8.70
2011,06,16,03,35,8.70
2011,06,16,03,36,8.70
2011,06,16,03,37,8.70
2011,06,16,03,38,8.70
2011,06,16,03,39,8.70
2011,06,16,03,40,8.60
2011,06,16,03,41,8.60
2011,06,16,03,42,8.60
2011,06,16,03,43,8.60
2011,06,16,03,44,8.60
2011,06,16,03,45,8.60
2011,06,16,03,46,8.60
2011,06,16,03,47,8.60
2011,06,16,03,48,8.60
2011,06,16,03,49,8.60
2011,06,16,03,50,8.60
2011,06,16,03,51,8.50
2011,06,16,03,52,8.60
2011,06,16,03,53,8.50
2011,06,16,03,54,8.50
2011,06,16,03,55,8.50
2011,06,16,03,56,8.40
2011,06,16,03,57,8.40
2011,06,16,03,58,8.40
2011,06,16,03,59,8.40
2011,06,16,04,00,8.40
2011,06,16,04,01,8.40
2011,06,16,04,02,8.40
2011,06,16,04,03,8.40
2011,06,16,04,04,8.40
2011,06,16,04,05,8.40
2011,06,16,04,06,8.40
2011,06,16,04,07,8.40
2011,06,16,04,08,8.40
2011,06,16,04,09,8.40
2011,06,16,04,10,8.40
2011,06,16,04,11,8.40
2011,06,16,04,12,8.40
2011,06,16,04,13,8.30
2011,06,16,04,14,8.30
2011,06,16,04,15,8.30
2011,06,16,04,16,8.30
2011,06,16,04,17,8.30
2011,06,16,04,18,8.20
2011,06,16,04,19,8.10
2011,06,16,04,20,8.10
2011,06,16,04,21,8.00
2011,06,16,04,22,7.90
2011,06,16,04,23,7.90
2011,06,16,04,24,7.80
2011,06,16,04,25,7.80
2011,06,16,04,26,7.80
2011,06,16,04,27,7.80
2011,06,16,04,28,7.70
2011,06,16,04,29,7.70
2011,06,16,04,30,7.80
2011,06,16,04,31,7.80
2011,06,16,04,32,7.80
2011,06,16,04,33,7.80
2011,06,16,04,34,7.90
2011,06,16,04,35,7.90
2011,06,16,04,36,7.90
2011,06,16,04,37,7.90
2011,06,16,04,38,7.90
2011,06,16,04,39,7.90
2011,06,16,04,40,7.90
2011,06,16,04,41,7.90
2011,06,16,04,42,7.80
2011,06,16,04,43,7.80
2011,06,16,04,44,7.80
2011,06,16,04,45,7.80
2011,06,16,04,46,7.80
2011,06,16,04,47,7.80
2011,06,16,04,48,7.80
2011,06,16,04,49,7.80
2011,06,16,04,50,7.80
2011,06,16,04,51,7.80
2011,06,16,04,52,7.80
2011,06,16,04,53,7.80
2011,06,16,04,54,7.80
2011,06,16,04,55,7.80
2011,06,16,04,56,7.80
2011,06,16,04,57,7.80
2011,06,16,04,58,7.80
2011,06,16,04,59,7.80
2011,06,16,05,00,7.80
2011,06,16,05,01,7.80
2011,06,16,05,02,7.80
2011,06,16,05,03,7.70
2011,06,16,05,04,7.70
2011,06,16,05,05,7.70
2011,06,16,05,06,7.70
2011,06,16,05,07,7.70
2011,06,16,05,08,7.70
2011,06,16,05,09,7.70
2011,06,16,05,10,7.70
2011,06,16,05,11,7.70
2011,06,16,05,12,7.70
2011,06,16,05,13,7.70
2011,06,16,05,14,7.70
2011,06,16,05,15,7.60
2011,06,16,05,16,7.60
2011,06,16,05,17,7.60
2011,06,16,05,18,7.60
2011,06,16,05,19,7.60
2011,06,16,05,20,7.60
2011,06,16,05,21,7.60
2011,06,16,05,22,7.50
2011,06,16,05,23,7.50
2011,06,16,05,24,7.50
2011,06,16,05,25,7.50
2011,06,16,05,26,7.50
2011,06,16,05,27,7.50
2011,06,16,05,28,7.60
2011,06,16,05,29,7.60
2011,06,16,05,30,7.60
2011,06,16,05,31,7.60
2011,06,16,05,32,7.60
2011,06,16,05,33,7.60
2011,06,16,05,34,7.60
2011,06,16,05,35,7.70
2011,06,16,05,36,7.70
2011,06,16,05,37,7.70
2011,06,16,05,38,7.70
2011,06,16,05,39,7.70
2011,06,16,05,40,7.70
2011,06,16,05,41,7.70
2011,06,16,05,42,7.70
2011,06,16,05,43,7.70
2011,06,16,05,44,7.70
2011,06,16,05,45,7.70
2011,06,16,05,46,7.70
2011,06,16,05,47,7.70
2011,06,16,05,48,7.70
2011,06,16,05,49,7.80
2011,06,16,05,50,7.80
2011,06,16,05,51,7.80
2011,06,16,05,52,7.80
2011,06,16,05,53,7.80
2011,06,16,05,54,7.80
2011,06,16,05,55,7.80
2011,06,16,05,56,7.80
2011,06,16,05,57,7.80
2011,06,16,05,58,7.90
2011,06,16,05,59,7.80
2011,06,16,06,00,7.80
2011,06,16,06,01,7.90
2011,06,16,06,02,7.90
2011,06,16,06,03,7.90
2011,06,16,06,04,7.90
2011,06,16,06,05,7.90
2011,06,16,06,06,7.90
2011,06,16,06,07,8.00
2011,06,16,06,08,8.00
2011,06,16,06,09,8.10
2011,06,16,06,10,8.10
2011,06,16,06,11,8.20
2011,06,16,06,12,8.20
2011,06,16,06,13,8.30
2011,06,16,06,14,8.30
2011,06,16,06,15,8.40
2011,06,16,06,16,8.50
2011,06,16,06,17,8.60
2011,06,16,06,18,8.70
2011,06,16,06,19,8.80
2011,06,16,06,20,8.80
2011,06,16,06,21,8.90
2011,06,16,06,22,8.90
2011,06,16,06,23,9.00
2011,06,16,06,24,9.00
2011,06,16,06,25,9.10
2011,06,16,06,26,9.10
2011,06,16,06,27,9.20
2011,06,16,06,28,9.20
2011,06,16,06,29,9.20
2011,06,16,06,30,9.30
2011,06,16,06,31,9.30
2011,06,16,06,32,9.30
2011,06,16,06,33,9.40
2011,06,16,06,34,9.40
2011,06,16,06,35,9.40
2011,06,16,06,36,9.50
2011,06,16,06,37,9.50
2011,06,16,06,38,9.60
2011,06,16,06,39,9.70
2011,06,16,06,40,9.80
2011,06,16,06,41,9.80
2011,06,16,06,42,9.90
2011,06,16,06,43,10.00
2011,06,16,06,44,10.10
2011,06,16,06,45,10.20
2011,06,16,06,46,10.30
2011,06,16,06,47,10.50
2011,06,16,06,48,10.60
2011,06,16,06,49,10.70
2011,06,16,06,50,10.80
2011,06,16,06,51,10.90
2011,06,16,06,52,10.90
2011,06,16,06,53,11.00
2011,06,16,06,54,10.90
2011,06,16,06,55,10.90
2011,06,16,06,56,10.90
2011,06,16,06,57,10.90
2011,06,16,06,58,10.90
2011,06,16,06,59,10.80
2011,06,16,07,00,10.90
2011,06,16,07,01,10.90
2011,06,16,07,02,10.90
2011,06,16,07,03,11.00
2011,06,16,07,04,11.10
2011,06,16,07,05,11.20
2011,06,16,07,06,11.30
2011,06,16,07,07,11.30
2011,06,16,07,08,11.30
2011,06,16,07,09,11.30
2011,06,16,07,10,11.30
2011,06,16,07,11,11.30
2011,06,16,07,12,11.30
2011,06,16,07,13,11.20
2011,06,16,07,14,11.20
2011,06,16,07,15,11.20
2011,06,16,07,16,11.20
2011,06,16,07,17,11.20
2011,06,16,07,18,11.20
2011,06,16,07,19,11.20
2011,06,16,07,20,11.20
2011,06,16,07,21,11.20
2011,06,16,07,22,11.20
2011,06,16,07,23,11.20
2011,06,16,07,24,11.30
2011,06,16,07,25,11.30
2011,06,16,07,26,11.30
2011,06,16,07,27,11.30
2011,06,16,07,28,11.20
2011,06,16,07,29,11.20
2011,06,16,07,30,11.20
2011,06,16,07,31,11.20
2011,06,16,07,32,11.30
2011,06,16,07,33,11.30
2011,06,16,07,34,11.40
2011,06,16,07,35,11.40
2011,06,16,07,36,11.50
2011,06,16,07,37,11.50
2011,06,16,07,38,11.60
2011,06,16,07,39,11.60
2011,06,16,07,40,11.60
2011,06,16,07,41,11.70
2011,06,16,07,42,11.80
2011,06,16,07,43,11.90
2011,06,16,07,44,12.00
2011,06,16,07,45,12.10
2011,06,16,07,46,12.20
2011,06,16,07,47,12.30
2011,06,16,07,48,12.30
2011,06,16,07,49,12.40
2011,06,16,07,50,12.40
2011,06,16,07,51,12.40
2011,06,16,07,52,12.50
2011,06,16,07,53,12.60
2011,06,16,07,54,12.70
2011,06,16,07,55,12.80
2011,06,16,07,56,12.80
2011,06,16,07,57,12.90
2011,06,16,07,58,12.90
2011,06,16,07,59,12.90
2011,06,16,08,00,12.90
2011,06,16,08,01,12.90
2011,06,16,08,02,13.00
2011,06,16,08,03,13.10
2011,06,16,08,04,13.10
2011,06,16,08,05,13.20
2011,06,16,08,06,13.20
2011,06,16,08,07,13.30
2011,06,16,08,08,13.30
2011,06,16,08,09,13.30
2011,06,16,08,10,13.40
2011,06,16,08,11,13.40
2011,06,16,08,12,13.30
2011,06,16,08,13,13.30
2011,06,16,08,14,13.20
2011,06,16,08,15,13.20
2011,06,16,08,16,13.20
2011,06,16,08,17,13.30
2011,06,16,08,18,13.30
2011,06,16,08,19,13.30
2011,06,16,08,20,13.40
2011,06,16,08,21,13.40
2011,06,16,08,22,13.40
2011,06,16,08,23,13.40
2011,06,16,08,24,13.30
2011,06,16,08,25,13.20
2011,06,16,08,26,13.20
2011,06,16,08,27,13.10
2011,06,16,08,28,13.10
2011,06,16,08,29,13.10
2011,06,16,08,30,13.10
2011,06,16,08,31,13.10
2011,06,16,08,32,13.10
2011,06,16,08,33,13.10
2011,06,16,08,34,13.10
2011,06,16,08,35,13.00
2011,06,16,08,36,13.00
2011,06,16,08,37,12.90
2011,06,16,08,38,12.90
2011,06,16,08,39,12.90
2011,06,16,08,40,12.90
2011,06,16,08,41,12.90
2011,06,16,08,42,12.90
2011,06,16,08,43,13.00
2011,06,16,08,44,13.00
2011,06,16,08,45,12.90
2011,06,16,08,46,12.90
2011,06,16,08,47,12.90
2011,06,16,08,48,12.90
2011,06,16,08,49,12.90
2011,06,16,08,50,12.80
2011,06,16,08,51,12.90
2011,06,16,08,52,12.90
2011,06,16,08,53,12.90
2011,06,16,08,54,12.90
2011,06,16,08,55,12.90
2011,06,16,08,56,12.90
2011,06,16,08,57,12.90
2011,06,16,08,58,13.00
2011,06,16,08,59,13.10
2011,06,16,09,00,13.10
2011,06,16,09,01,13.20
2011,06,16,09,02,13.20
2011,06,16,09,03,13.30
2011,06,16,09,04,13.30
2011,06,16,09,05,13.30
2011,06,16,09,06,13.30
2011,06,16,09,07,13.40
2011,06,16,09,08,13.50
2011,06,16,09,09,13.50
2011,06,16,09,10,13.60
2011,06,16,09,11,13.60
2011,06,16,09,12,13.70
2011,06,16,09,13,13.80
2011,06,16,09,14,13.80
2011,06,16,09,15,13.90
2011,06,16,09,16,13.90
2011,06,16,09,17,13.90
2011,06,16,09,18,13.90
2011,06,16,09,19,13.90
2011,06,16,09,20,13.90
2011,06,16,09,21,13.90
2011,06,16,09,22,13.90
2011,06,16,09,23,13.90
2011,06,16,09,24,13.90
2011,06,16,09,25,14.10
2011,06,16,09,26,14.10
2011,06,16,09,27,14.10
2011,06,16,09,28,14.20
2011,06,16,09,29,14.10
2011,06,16,09,30,14.10
2011,06,16,09,31,14.10
2011,06,16,09,32,14.10
2011,06,16,09,33,14.10
2011,06,16,09,34,14.10
2011,06,16,09,35,14.10
2011,06,16,09,36,14.10
2011,06,16,09,37,14.00
2011,06,16,09,38,14.00
2011,06,16,09,39,14.00
2011,06,16,09,40,14.10
2011,06,16,09,41,14.20
2011,06,16,09,42,14.20
2011,06,16,09,43,14.20
2011,06,16,09,44,14.30
2011,06,16,09,45,14.30
2011,06,16,09,46,14.30
2011,06,16,09,47,14.30
2011,06,16,09,48,14.30
2011,06,16,09,49,14.30
2011,06,16,09,50,14.40
2011,06,16,09,51,14.40
2011,06,16,09,52,14.40
2011,06,16,09,53,14.40
2011,06,16,09,54,14.40
2011,06,16,09,55,14.50
2011,06,16,09,56,14.50
2011,06,16,09,57,14.50
2011,06,16,09,58,14.50
2011,06,16,09,59,14.60
2011,06,16,10,00,14.60
2011,06,16,10,01,14.70
2011,06,16,10,02,14.70
2011,06,16,10,03,14.70
2011,06,16,10,04,14.70
2011,06,16,10,05,14.70
2011,06,16,10,06,14.70
2011,06,16,10,07,14.60
2011,06,16,10,08,14.60
2011,06,16,10,09,14.60
2011,06,16,10,10,14.60
2011,06,16,10,11,14.60
2011,06,16,10,12,14.70
2011,06,16,10,13,14.80
2011,06,16,10,14,14.90
2011,06,16,10,15,14.90
2011,06,16,10,16,15.00
2011,06,16,10,17,15.00
2011,06,16,10,18,15.10
2011,06,16,10,19,15.10
2011,06,16,10,20,15.10
2011,06,16,10,21,15.10
2011,06,16,10,22,15.00
2011,06,16,10,23,15.00
2011,06,16,10,24,15.00
2011,06,16,10,25,15.10
2011,06,16,10,26,15.20
2011,06,16,10,27,15.20
2011,06,16,10,28,15.30
2011,06,16,10,29,15.30
2011,06,16,10,30,15.30
2011,06,16,10,31,15.20
2011,06,16,10,32,15.20
2011,06,16,10,33,15.20
2011,06,16,10,34,15.20
2011,06,16,10,35,15.20
2011,06,16,10,36,15.10
2011,06,16,10,37,15.00
2011,06,16,10,38,15.00
2011,06,16,10,39,15.00
2011,06,16,10,40,15.00
2011,06,16,10,41,15.00
2011,06,16,10,42,15.10
2011,06,16,10,43,15.20
2011,06,16,10,44,15.30
2011,06,16,10,45,15.40
2011,06,16,10,46,15.40
2011,06,16,10,47,15.50
2011,06,16,10,48,15.40
2011,06,16,10,49,15.40
2011,06,16,10,50,15.40
2011,06,16,10,51,15.50
2011,06,16,10,52,15.60
2011,06,16,10,53,15.60
2011,06,16,10,54,15.50
2011,06,16,10,55,15.40
2011,06,16,10,56,15.20
2011,06,16,10,57,15.00
2011,06,16,10,58,15.00
2011,06,16,10,59,14.90
2011,06,16,11,00,14.90
2011,06,16,11,01,14.90
2011,06,16,11,02,14.90
2011,06,16,11,03,14.90
2011,06,16,11,04,14.90
2011,06,16,11,05,14.90
2011,06,16,11,06,14.90
2011,06,16,11,07,15.00
2011,06,16,11,08,15.00
2011,06,16,11,09,14.90
2011,06,16,11,10,14.90
2011,06,16,11,11,14.80
2011,06,16,11,12,14.80
2011,06,16,11,13,14.80
2011,06,16,11,14,14.80
2011,06,16,11,15,14.80
2011,06,16,11,16,14.80
2011,06,16,11,17,14.80
2011,06,16,11,18,14.90
2011,06,16,11,19,15.10
2011,06,16,11,20,15.30
2011,06,16,11,21,15.40
2011,06,16,11,22,15.30
2011,06,16,11,23,15.20
2011,06,16,11,24,15.10
2011,06,16,11,25,15.10
2011,06,16,11,26,15.00
2011,06,16,11,27,14.90
2011,06,16,11,28,14.80
2011,06,16,11,29,14.80
2011,06,16,11,30,14.70
2011,06,16,11,31,14.80
2011,06,16,11,32,14.80
2011,06,16,11,33,14.80
2011,06,16,11,34,14.80
2011,06,16,11,35,14.80
2011,06,16,11,36,14.70
2011,06,16,11,37,14.70
2011,06,16,11,38,14.70
2011,06,16,11,39,14.80
2011,06,16,11,40,14.80
2011,06,16,11,41,14.70
2011,06,16,11,42,14.70
2011,06,16,11,43,14.60
2011,06,16,11,44,14.60
2011,06,16,11,45,14.70
2011,06,16,11,46,14.70
2011,06,16,11,47,14.70
2011,06,16,11,48,14.70
2011,06,16,11,49,14.70
2011,06,16,11,50,14.70
2011,06,16,11,51,14.80
2011,06,16,11,52,14.90
2011,06,16,11,53,14.90
2011,06,16,11,54,14.80
2011,06,16,11,55,14.80
2011,06,16,11,56,14.80
2011,06,16,11,57,14.80
2011,06,16,11,58,14.80
2011,06,16,11,59,14.80
2011,06,16,12,00,14.80
2011,06,16,12,01,14.80
2011,06,16,12,02,14.90
2011,06,16,12,03,14.90
2011,06,16,12,04,14.90
2011,06,16,12,05,14.80
2011,06,16,12,06,14.80
2011,06,16,12,07,14.70
2011,06,16,12,08,14.60
2011,06,16,12,09,14.70
2011,06,16,12,10,14.80
2011,06,16,12,11,14.90
2011,06,16,12,12,15.00
2011,06,16,12,13,15.00
2011,06,16,12,14,15.10
2011,06,16,12,15,15.10
2011,06,16,12,16,15.20
2011,06,16,12,17,15.30
2011,06,16,12,18,15.40
2011,06,16,12,19,15.40
2011,06,16,12,20,15.50
2011,06,16,12,21,15.60
2011,06,16,12,22,15.70
2011,06,16,12,23,15.70
2011,06,16,12,24,15.70
2011,06,16,12,25,15.60
2011,06,16,12,26,15.40
2011,06,16,12,27,15.40
2011,06,16,12,28,15.40
2011,06,16,12,29,15.30
2011,06,16,12,30,15.20
2011,06,16,12,31,15.00
2011,06,16,12,32,14.90
2011,06,16,12,33,14.80
2011,06,16,12,34,14.80
2011,06,16,12,35,14.70
2011,06,16,12,36,14.70
2011,06,16,12,37,14.60
2011,06,16,12,38,14.50
2011,06,16,12,39,14.50
2011,06,16,12,40,14.50
2011,06,16,12,41,14.50
2011,06,16,12,42,14.50
2011,06,16,12,43,14.60
2011,06,16,12,44,14.60
2011,06,16,12,45,14.70
2011,06,16,12,46,14.70
2011,06,16,12,47,14.70
2011,06,16,12,48,14.80
2011,06,16,12,49,14.80
2011,06,16,12,50,14.90
2011,06,16,12,51,14.90
2011,06,16,12,52,15.00
2011,06,16,12,53,15.10
2011,06,16,12,54,15.10
2011,06,16,12,55,15.00
2011,06,16,12,56,15.00
2011,06,16,12,57,15.10
2011,06,16,12,58,15.10
2011,06,16,12,59,15.20
2011,06,16,13,00,15.30
2011,06,16,13,01,15.30
2011,06,16,13,02,15.40
2011,06,16,13,03,15.30
2011,06,16,13,04,15.20
2011,06,16,13,05,15.20
2011,06,16,13,06,15.10
2011,06,16,13,07,15.00
2011,06,16,13,08,15.00
2011,06,16,13,09,15.00
2011,06,16,13,10,15.10
2011,06,16,13,11,15.10
2011,06,16,13,12,15.20
2011,06,16,13,13,15.20
2011,06,16,13,14,15.20
2011,06,16,13,15,15.10
2011,06,16,13,16,15.10
2011,06,16,13,17,15.10
2011,06,16,13,18,15.10
2011,06,16,13,19,15.00
2011,06,16,13,20,14.90
2011,06,16,13,21,14.90
2011,06,16,13,22,14.80
2011,06,16,13,23,14.80
2011,06,16,13,24,14.70
2011,06,16,13,25,14.70
2011,06,16,13,26,14.70
2011,06,16,13,27,14.70
2011,06,16,13,28,14.80
2011,06,16,13,29,14.90
2011,06,16,13,30,15.00
2011,06,16,13,31,15.20
2011,06,16,13,32,15.30
2011,06,16,13,33,15.40
2011,06,16,13,34,15.40
2011,06,16,13,35,15.40
2011,06,16,13,36,15.40
2011,06,16,13,37,15.70
2011,06,16,13,38,15.80
2011,06,16,13,39,15.90
2011,06,16,13,40,15.80
2011,06,16,13,41,15.80
2011,06,16,13,42,15.80
2011,06,16,13,43,15.80
2011,06,16,13,44,15.70
2011,06,16,13,45,15.80
2011,06,16,13,46,15.80
2011,06,16,13,47,15.80
2011,06,16,13,48,15.80
2011,06,16,13,49,15.70
2011,06,16,13,50,15.70
2011,06,16,13,51,15.70
2011,06,16,13,52,15.70
2011,06,16,13,53,15.80
2011,06,16,13,54,15.80
2011,06,16,13,55,15.90
2011,06,16,13,56,16.00
2011,06,16,13,57,16.10
2011,06,16,13,58,16.20
2011,06,16,13,59,16.20
2011,06,16,14,00,16.20
2011,06,16,14,01,16.20
2011,06,16,14,02,16.10
2011,06,16,14,03,16.00
2011,06,16,14,04,16.00
2011,06,16,14,05,16.00
2011,06,16,14,06,16.20
2011,06,16,14,07,16.20
2011,06,16,14,08,16.20
2011,06,16,14,09,16.20
2011,06,16,14,10,16.20
2011,06,16,14,11,16.20
2011,06,16,14,12,16.20
2011,06,16,14,13,16.30
2011,06,16,14,14,16.30
2011,06,16,14,15,16.40
2011,06,16,14,16,16.40
2011,06,16,14,17,16.40
2011,06,16,14,18,16.50
2011,06,16,14,19,16.60
2011,06,16,14,20,16.60
2011,06,16,14,21,16.70
2011,06,16,14,22,16.70
2011,06,16,14,23,16.70
2011,06,16,14,24,16.80
2011,06,16,14,25,16.80
2011,06,16,14,26,16.80
2011,06,16,14,27,16.80
2011,06,16,14,28,16.80
2011,06,16,14,29,16.80
2011,06,16,14,30,16.80
2011,06,16,14,31,16.90
2011,06,16,14,32,17.00
2011,06,16,14,33,17.20
2011,06,16,14,34,17.30
2011,06,16,14,35,17.40
2011,06,16,14,36,17.50
2011,06,16,14,37,17.50
2011,06,16,14,38,17.50
2011,06,16,14,39,17.60
2011,06,16,14,40,17.70
2011,06,16,14,41,17.80
2011,06,16,14,42,17.80
2011,06,16,14,43,17.80
2011,06,16,14,44,17.90
2011,06,16,14,45,18.00
2011,06,16,14,46,18.00
2011,06,16,14,47,18.10
2011,06,16,14,48,18.10
2011,06,16,14,49,18.10
2011,06,16,14,50,18.10
2011,06,16,14,51,18.20
2011,06,16,14,52,18.20
2011,06,16,14,53,18.30
2011,06,16,14,54,18.30
2011,06,16,14,55,18.30
2011,06,16,14,56,18.50
2011,06,16,14,57,18.60
2011,06,16,14,58,18.80
2011,06,16,14,59,18.80
2011,06,16,15,00,18.90
2011,06,16,15,01,18.80
2011,06,16,15,02,18.80
2011,06,16,15,03,18.70
2011,06,16,15,04,18.60
2011,06,16,15,05,18.60
2011,06,16,15,06,18.70
2011,06,16,15,07,18.80
2011,06,16,15,08,18.90
2011,06,16,15,09,19.00
2011,06,16,15,10,19.00
2011,06,16,15,11,19.10
2011,06,16,15,12,19.20
2011,06,16,15,13,19.30
2011,06,16,15,14,19.30
2011,06,16,15,15,19.40
2011,06,16,15,16,19.50
2011,06,16,15,17,19.70
2011,06,16,15,18,19.80
2011,06,16,15,19,19.80
2011,06,16,15,20,19.80
2011,06,16,15,21,19.80
2011,06,16,15,22,19.70
2011,06,16,15,23,19.60
2011,06,16,15,24,19.60
2011,06,16,15,25,19.60
2011,06,16,15,26,19.60
2011,06,16,15,27,19.60
2011,06,16,15,28,19.70
2011,06,16,15,29,19.70
2011,06,16,15,30,19.70
2011,06,16,15,31,19.70
2011,06,16,15,32,19.70
2011,06,16,15,33,19.70
2011,06,16,15,34,19.70
2011,06,16,15,35,19.70
2011,06,16,15,36,19.70
2011,06,16,15,37,19.60
2011,06,16,15,38,19.50
2011,06,16,15,39,19.60
2011,06,16,15,40,19.70
2011,06,16,15,41,19.80
2011,06,16,15,42,19.90
2011,06,16,15,43,20.00
2011,06,16,15,44,20.10
2011,06,16,15,45,20.00
2011,06,16,15,46,19.90
2011,06,16,15,47,19.90
2011,06,16,15,48,19.90
2011,06,16,15,49,20.10
2011,06,16,15,50,20.10
2011,06,16,15,51,20.10
2011,06,16,15,52,20.10
2011,06,16,15,53,20.20
2011,06,16,15,54,20.10
2011,06,16,15,55,20.00
2011,06,16,15,56,20.00
2011,06,16,15,57,20.10
2011,06,16,15,58,20.00
2011,06,16,15,59,19.90
2011,06,16,16,00,19.90
2011,06,16,16,01,19.80
2011,06,16,16,02,19.80
2011,06,16,16,03,19.80
2011,06,16,16,04,19.80
2011,06,16,16,05,19.80
2011,06,16,16,06,19.80
2011,06,16,16,07,19.80
2011,06,16,16,08,19.80
2011,06,16,16,09,19.80
2011,06,16,16,10,19.80
2011,06,16,16,11,19.80
2011,06,16,16,12,19.90
2011,06,16,16,13,19.90
2011,06,16,16,14,19.90
2011,06,16,16,15,19.90
2011,06,16,16,16,20.00
2011,06,16,16,17,20.10
2011,06,16,16,18,20.20
2011,06,16,16,19,20.30
2011,06,16,16,20,20.40
2011,06,16,16,21,20.50
2011,06,16,16,22,20.60
2011,06,16,16,23,20.60
2011,06,16,16,24,20.60
2011,06,16,16,25,20.60
2011,06,16,16,26,20.70
2011,06,16,16,27,20.60
2011,06,16,16,28,20.60
2011,06,16,16,29,20.60
2011,06,16,16,30,20.70
2011,06,16,16,31,20.70
2011,06,16,16,32,20.70
2011,06,16,16,33,20.70
2011,06,16,16,34,20.70
2011,06,16,16,35,20.70
2011,06,16,16,36,20.70
2011,06,16,16,37,20.70
2011,06,16,16,38,20.60
2011,06,16,16,39,20.60
2011,06,16,16,40,20.70
2011,06,16,16,41,20.70
2011,06,16,16,42,20.70
2011,06,16,16,43,20.60
2011,06,16,16,44,20.60
2011,06,16,16,45,20.60
2011,06,16,16,46,20.60
2011,06,16,16,47,20.70
2011,06,16,16,48,20.70
2011,06,16,16,49,20.60
2011,06,16,16,50,20.60
2011,06,16,16,51,20.40
2011,06,16,16,52,20.30
2011,06,16,16,53,20.20
2011,06,16,16,54,20.20
2011,06,16,16,55,20.10
2011,06,16,16,56,20.00
2011,06,16,16,57,19.90
2011,06,16,16,58,19.90
2011,06,16,16,59,19.80
2011,06,16,17,00,19.80
2011,06,16,17,01,19.70
2011,06,16,17,02,19.70
2011,06,16,17,03,19.80
2011,06,16,17,04,19.70
2011,06,16,17,05,19.70
2011,06,16,17,06,19.70
2011,06,16,17,07,19.70
2011,06,16,17,08,19.60
2011,06,16,17,09,19.50
2011,06,16,17,10,19.50
2011,06,16,17,11,19.50
2011,06,16,17,12,19.40
2011,06,16,17,13,19.40
2011,06,16,17,14,19.40
2011,06,16,17,15,19.30
2011,06,16,17,16,19.30
2011,06,16,17,17,19.20
2011,06,16,17,18,19.10
2011,06,16,17,19,19.10
2011,06,16,17,20,19.00
2011,06,16,17,21,18.90
2011,06,16,17,22,18.90
2011,06,16,17,23,18.80
2011,06,16,17,24,18.70
2011,06,16,17,25,18.70
2011,06,16,17,26,18.70
2011,06,16,17,27,18.70
2011,06,16,17,28,18.70
2011,06,16,17,29,18.70
2011,06,16,17,30,18.70